1st Responders/1st Detectors/Storm Spotters Weather Summary for Simpson County, KY

Forecast Maps


Reg. NEXRAD Animation


National Fire Danger: Day 1 & 2 Map

Current NWS Watch/Warnings

SPC Convective Day 1 Outlook


Day 2 Outlook

(Click images to enlarge|Page will refresh every 5 minutes)
UK Ag. Weather Center Desktop Severe Weather Service[HERE]
Simpson County, KY Hazardous Weather Outlook Webcast
(9 AM to 9 PM Mon-Fri)
[Fast]
[Dial-up]


UKAWC 1st Detectors/1st Responders Precision Weather Forecast For SIMPSON County, Kentucky
(based on the NWS County Digital Forecast)

ISSUED AT 02:00 UTC ON MONDAY NOV 30 2020
DAY SUNDAY MONDAY
CDT 3HR 10P 11P MIDN 1A 2A 3A 4A 5A 6A 7A 8A 9A 10A 11A NOON 1P 2P 3P 4P 5P 6P
MAX/MIN -- -- -- -- -- -- -- -- -- 34° -- -- -- -- -- -- -- -- -- -- 36°
TEMP 43° 41° 41° 40° 40° 40° 38° 38° 38° 36° 36° 34° 34° 34° 34° 34° 34° 32° 32° 31° 31°
SKY COVER 100% 100% 100% 100% 100% 100% 100% 100% 100% 100% 100% 100% 100% 100% 100% 100% 98% 96% 94% 93% 91%
Clouds
DEW PT 41° 40° 40° 40° 38° 38° 36° 36° 36° 34° 34° 32° 31° 31° 29° 29° 29° 27° 27° 27° 25°
RH 96% 96% 92% 95% 95% 92% 92% 91% 91% 91% 92% 92% 92% 89% 85% 81% 81% 81% 81% 81% 78%
POP 12HR -- -- -- -- -- -- -- -- -- 100% -- -- -- -- -- -- -- -- -- -- --
RAIN/SNOW (liq.equ) -- -- -- 0.29in -- -- -- -- -- 0.15in -- -- -- -- -- 0.01in -- -- -- -- --
SNOWFALL -- -- -- 0in -- -- -- -- -- 0in -- -- -- -- -- 0in -- -- -- -- --
WIND SPEED(MPH) 8 13 13 14 14 14 13 14 15 15 16 16 15 16 16 15 16 16 16 15 15
WIND Gust(MPH) 14 22 22 23 26 24 21 22 23 23 25 29 30 30 29 26 25 26 26 24 23
WIND DIR N N N NW NW NW NW NW NW NW NW NW NW NW NW NW NW NW NW NW NW
DEW -- -- -- -- -- -- -- -- -- -- -- -- -- -- -- -- -- -- -- -- --
HeatIndex 37 35 35 33 32 32 31 29 29 27 25 24 23 23 23 23 23 22 22 21 21
Snow Showers -- -- -- -- -- -- -- Chance Likely Chance Chance Chance Chance Chance Chance Chance Chance Chance Slight Chance Slight Chance Slight Chance
Rain Showers Definite Definite Definite Definite Definite Definite Definite Definite Slight Chance -- -- -- -- -- -- -- -- -- -- -- --
WIND CHILL 38° 34° 34° 32° 32° 32° 30° 30° 29° 27° 27° 24° 24° 24° 24° 24° 24° 21° 21° 21° 21°
SPRAY COND
DRY COND
LIVESTOCK COLDSTRESS



DAY MONDAY TUESDAY WEDNESDAY THURSDAY FRIDAY SATURDAY SUNDAY
CDT 6HR 7P 8P 9P 10P 11P MIDN 1A 2A 3A 4A 5A 6A 7A 8A 9A 10A 1P 4P 7P 10P 1A 4A 7A 10A 1P 4P 7P 1A 7A 1P 7P 1A 7A 1P 7P 1A 7A 1P 7P 1A 7A 1P 7P
MAX/MIN -- -- -- -- -- -- -- -- -- -- -- -- 22° -- -- -- -- 38° -- -- -- -- 23° -- -- 47° -- -- 31° 45° -- -- 34° 45° -- -- 29° 45° -- -- 29° 47° --
TEMP 31° 29° 29° 29° 27° 27° 27° 25° 25° 25° 25° 23° 23° 25° 27° 29° 36° 36° 31° 27° 25° 25° 25° 36° 45° 45° 36° 32° 32° 43° 40° 38° 36° 43° 38° 34° 31° 41° 38° 32° 31° 43° 40°
SKY COVER 89% 85% 80% 76% 71% 67% 62% 57% 52% 48% 43% 38% 10% 10% 8% 8% 6% 0% 1% 1% 1% 6% 12% 14% 15% 16% 39% 75% 85% 74% 86% 81% 80% 71% 69% 55% 56% 30% 29% 22% 29% 19% 22%
Clouds
DEW PT 25° 23° 22° 22° 22° 20° 20° 20° 20° 20° 20° 20° 20° 20° 20° 20° 18° 16° 18° 18° 18° 18° 20° 23° 25° 25° 27° 27° 29° 31° 34° 34° 34° 34° 32° 29° 29° 29° 29° 29° 27° 31° 31°
RH 78% 77% 77% 74% 77% 74% 77% 81% 77% 80% 81% 84% 84% 80% 74% 68% 47% 43% 60% 68% 71% 77% 77% 61% 45% 44% 66% 78% 84% 64% 75% 85% 92% 73% 81% 84% 88% 62% 72% 85% 85% 59% 72%
POP 12HR 47% -- -- -- -- -- -- -- -- -- -- -- 12% -- -- -- -- -- 0% -- -- -- 0% -- -- -- 0% -- 13% -- 24% -- 23% -- 21% -- 21% -- 16% -- 7% -- 5%
RAIN/SNOW (liq.equ) 0.00in -- -- -- -- -- 0.00in -- -- -- -- -- 0.00in -- -- -- 0.00in -- 0.00in -- 0.00in -- 0.00in -- 0.00in -- 0.00in -- -- -- -- -- -- -- -- -- -- -- -- -- -- -- --
SNOWFALL 0in -- -- -- -- -- 0in -- -- -- -- -- 0in -- -- -- 0in -- 0in -- 0in -- 0in -- 0in -- 0in -- -- -- -- -- -- -- -- -- -- -- -- -- -- -- --
WIND SPEED(MPH) 15 14 14 13 13 10 9 8 8 8 7 7 7 7 8 9 10 9 2 2 1 2 2 6 7 6 2 2 5 6 2 2 2 7 5 6 6 10 6 6 7 10 7
WIND DIR NW NW NW NW W W W W W W W W W W W W W W W SW SW SW S S S S SE SE SE S S S W W W W W W W W W W W
HeatIndex 20 19 18 18 17 18 17 16 16 15 16 14 14 17 19 21 27 29 27 23 25 20 21 31 41 45 34 29 28 39 38 36 34 38 34 28 26 35 33 27 25 38 34
Snow Showers -- -- -- -- -- -- -- -- -- -- -- -- -- -- -- -- -- -- -- -- -- -- -- -- -- -- -- -- Slight Chance -- -- -- -- -- -- Slight Chance Slight Chance -- -- -- -- -- --
Rain Showers -- -- -- -- -- -- -- -- -- -- -- -- -- -- -- -- -- -- -- -- -- -- -- -- -- -- -- -- -- Slight Chance Slight Chance Slight Chance Slight Chance Slight Chance Slight Chance Slight Chance -- -- -- -- -- -- --
WIND CHILL 21° 19° 19° 19° 16° 18° 18° 17° 17° 17° 17° 15° 15° 17° 19° 21° 29° 29° -- -- -- -- -- 31° 41° 42° -- -- 28° 39° -- -- -- 39° 35° 29° 25° 35° 34° 27° 25° 37° 35°
SPRAY COND
DRY COND
LIVESTOCK COLDSTRESS

Click on individual weather variable above in left-hand column (ie., TEMP, RH, QPF 12HR) to view state forecast maps






NWS 48 Hr. Forecast Maps,

Regional Hourly Observations For SIMPSON County, Kentucky
Issued at 900 PM EST SUN NOV 29 2020
WESTERN AND SOUTH CENTRAL KENTUCKY
  
CITY           SKY/WX    TMP DP  RH WIND       PRES   REMARKS
PADUCAH        MOCLDY    42  38  85 CALM      29.92F                  
HENDERSON      LGT RAIN  43  37  79 CALM      29.95F                  
OWENSBORO      LGT RAIN  44  38  79 N13G21    29.92F                  
HOPKINSVILLE   HVY RAIN  40  40 100 NW12      29.91F WCI  33          
BOWLING GREEN  LGT RAIN  46  40  79 NW3       29.88F                  
GLASGOW        RAIN      46  44  94 CALM      29.87F                  


Current NOWCAST not available:
Nowcasts are not issued routinely during fair weather. Only when
precipitation or other significant weather is occuring in this county will these
forecasts be issued. Currently, there is no short term forecast in effect.


Fire Weather Forecast For SIMPSON County, KY
Provided by the National Weather Service:

Issued at: Sun Nov 29 21:05:01 EST 2020

322 PM EST Sun Nov 29 2020 /222 PM CST Sun Nov 29 2020/

                      Tonight      Mon          Mon Night    Tue          

CLOUD COVER           Cloudy       Cloudy       Pcldy        Mclear       
PRECIP TYPE           Showers      Snow Showers None         None         
CHANCE PRECIP (%)     100          60           0            0            
TEMP (24H TREND)      34 (+5)      39 (-14)     23           39           
RH % (24H TREND)      96 (+1)      71 (+12)     86           42           
20FTWND-VAL/AM(MPH)                NW 12 G23                 W  6         
20FTWND-RDG/PM(MPH)   NW  6 G17    NW 12 G22    NW 10 G21    W  7         
PRECIP AMOUNT         0.33         0.01         0.00         0.00         
MIXING HGT(FT-AGL/MSL)             3726                      3917         
TRANSPORT WND (MPH)                NW 28                     W 20         
VENT RATE (KT-FT)                  89875                     71039        
DISPERSION                         Good                      Good         
DSI                   SLGT UNSTBL  STBL         SLGT UNSTBL  SLGT UNSTBL  
LAL                   1            1            1            1            
HAINES INDEX          2            2            2            2            
ADI EARLY             12 POOR      46 GEN GOOD  19 GEN POOR  61 GOOD      
ADI LATE              22 FAIR      55 GEN GOOD  10 POOR      67 GOOD      
MAX LVORI EARLY       5            4            4            4            
MAX LVORI LATE        5            3            4            1            

REMARKS...ADI IS ATMOSPHERIC DISPERSION INDEX BY LAVDAS.        
LVORI IS LOW VISIBILITY OCCURRENCE RISK INDEX.

.WEDNESDAY...Mostly clear. Lows in the lower 20s. Highs in the
upper 40s. Light winds. 
.THURSDAY...Mostly cloudy. Lows around 30. Highs in the mid 40s.
South winds up to 5 mph. 
.FRIDAY...Mostly cloudy. Lows in the mid 30s. Highs in the mid
40s. West winds up to 5 mph. 
.SATURDAY...Partly cloudy. Lows around 30. Highs in the mid 40s.
West winds up to 10 mph. 
.SUNDAY...Partly cloudy. Lows in the upper 20s. Highs in the
upper 40s. West winds up to 10 mph. 

SPC's Fire Weather Web Tool (Excellent!), SPC's Fire Weather Outlooks, NWS Fire Weather WEB, Fire Danger Class Map,
Keetch-Byram Drought Index, ROMAN Web, Haines Index ,
WFAS's 10-hr Dead Fuel Moist., WFAS's 100-hr Dead Fuel Moist., Probablity of Ignition, Visual blackness Map, Palmer Drought Index, HPC's Rainfall Forecast Maps


Hazardous Weather Outlook For SIMPSON County, Kentucky
328 PM EST Sun Nov 29 2020 /228 PM CST Sun Nov 29 2020/

 DAY ONE  Tonight.

Rain is expected across the region overnight and the rain may begin
to mix with some snow toward dawn Monday.

 DAYS TWO THROUGH SEVEN  Monday through Saturday.

Light snow showers are expected on Monday and Monday night. A very
minor accumulation is possible west of a line from Madison, Indiana
to Albany, Kentucky. Some isolated slick spots are possible Monday
night and Tuesday morning. 

 SPOTTER INFORMATION STATEMENT  

Spotter should report their snow amounts Monday night and Tuesday
morning to the NWS in Louisville.

Latest SIMPSON County, Kentucky Watches, Warnings and Advisories.
Additional Drought Info.: UKAWC Drought Page, Kentucky Drought Watch


7-Day Forecast For SIMPSON County, KY

TONIGHT
Rain showers in the evening, then rain showers possibly mixed with snow showers after midnight. No snow accumulation. Lows in the mid 30s. Northwest winds 5 to 15 mph with gusts to around 30 mph. Chance of precipitation near 100 percent.

MONDAY
Cloudy with a 50 percent chance of snow showers. Highs in the upper 30s. Northwest winds 15 to 20 mph.

MONDAY NIGHT
Partly cloudy. Lows in the lower 20s. West winds 10 to 15 mph with gusts to around 30 mph.

TUESDAY
Mostly sunny. Highs in the upper 30s. West winds 5 to 15 mph.

TUESDAY NIGHT
Clear. Lows in the lower 20s. Southwest winds up to 5 mph.

WEDNESDAY
Mostly sunny. Highs in the upper 40s.

WEDNESDAY NIGHT
Partly cloudy. Lows in the lower 30s.

THURSDAY
Mostly cloudy with chance of rain showers possibly mixed with snow showers. Highs in the mid 40s. Chance of precipitation 30 percent.

THURSDAY NIGHT
Mostly cloudy with a 20 percent chance of rain showers. Lows in the mid 30s.

FRIDAY
Mostly cloudy with a 20 percent chance of rain showers. Highs in the mid 40s.

FRIDAY NIGHT
Partly cloudy with a 20 percent chance of rain showers and snow showers. Lows around 30.

SATURDAY
Partly cloudy with a 20 percent chance of rain showers and snow showers. Highs in the mid 40s.

SATURDAY NIGHT
Partly cloudy. Lows around 30.

SUNDAY
Mostly sunny. Highs in the upper 40s.

Ag Weather Center, Department of Biosystems & Agricultural Engineering, University of Kentucky